Location: Fort Wayne
(41.1310°N, 85.1290°W)
Time: 06:30:19
(UTC-04:00)

Cosmos 1980 - Visible Passes

Search period start: 28 May 2017 00:00
Search period end: 07 June 2017 00:00
Orbit: 838 x 848 km, 71.0° (Epoch: 27 May)

Date Brightness Start Highest point End Pass type
(mag) Time Alt. Az. Time Alt. Az. Time Alt. Az.
28 May 4.3 02:43:47 10° NNW 02:49:23 55° ENE 02:52:08 29° SE visible
28 May 4.9 04:28:52 10° NW 04:32:59 21° W 04:33:55 20° WSW visible
29 May 4.3 02:29:15 10° NNW 02:34:49 52° ENE 02:37:09 32° ESE visible
29 May 4.9 04:14:13 10° NW 04:18:27 22° W 04:18:56 22° WSW visible
30 May 4.4 02:14:42 10° NNW 02:20:15 50° ENE 02:22:16 35° ESE visible
30 May 4.9 03:59:35 10° NW 04:03:55 23° W 04:04:03 23° WSW visible
31 May 4.4 02:00:10 10° NNW 02:05:40 48° ENE 02:07:28 36° ESE visible
31 May 4.9 03:44:57 10° NW 03:49:16 24° W 03:49:16 24° W visible
01 Jun 4.5 01:45:38 10° NNW 01:51:06 46° ENE 01:52:45 36° ESE visible
01 Jun 4.9 03:30:19 10° NW 03:34:34 25° W 03:34:34 25° W visible
02 Jun 4.5 01:31:05 10° NNW 01:36:32 44° ENE 01:38:05 36° E visible
02 Jun 4.9 03:15:42 10° NW 03:19:55 26° W 03:19:55 26° W visible
03 Jun 4.6 01:16:34 10° NNW 01:21:58 43° ENE 01:23:30 35° E visible
03 Jun 4.9 03:01:05 10° NW 03:05:19 27° W 03:05:19 27° W visible
04 Jun 4.6 01:02:01 10° N 01:07:24 41° ENE 01:08:57 34° E visible
04 Jun 4.8 02:46:28 10° NW 02:50:46 28° W 02:50:46 28° W visible
05 Jun 4.7 00:47:30 10° N 00:52:50 39° ENE 00:54:26 32° E visible
05 Jun 4.8 02:31:52 10° NW 02:36:16 30° W 02:36:16 30° W visible
06 Jun 4.7 00:32:59 10° N 00:38:16 38° ENE 00:39:58 31° E visible
06 Jun 4.7 02:17:15 10° NW 02:21:48 31° W 02:21:48 31° W visible
